Annapolis Naval Academy, MD

4:34 PM EDT on April 25, 2018 (GMT -0400)
Annapolis Naval Academy

Weather History for KNAK - November, 2011

Change the Weather History Date:

Sunday, November 6, 2011

  Actual Average (KBWI) Record (KBWI)
Temperature  
Mean Temperature 47 °F -  
Max Temperature 55 °F 57 °F 80 °F (2015)
Min Temperature 39 °F 36 °F 22 °F (1991)
Degree Days  
Heating Degree Days 18    
Moisture  
Dew Point 41 °F    
Average Humidity 81    
Maximum Humidity 93    
Minimum Humidity 62    
Precipitation  
Precipitation 0.00 in - - ()
Sea Level Pressure  
Sea Level Pressure 30.48 in    
Wind  
Wind Speed 3 mph (ESE)    
Max Wind Speed 9 mph    
Max Gust Speed -    
Visibility 9 miles    
Events      
Averages and records for this station are not official NWS values.
T = Trace of Precipitation, MM = Missing Value Source: NWS Daily Summary

Daily Weather History Graph

Daily Weather History Graph

Search for Another Location

Airport or City:

Astronomy

Nov. 06, 2011 Rise Set
Actual Time 6:38 AM EST 5:00 PM EST
Civil Twilight 6:10 AM EST 5:28 PM EST
Nautical Twilight 5:38 AM EST 5:59 PM EST
Astronomical Twilight 5:07 AM EST 6:31 PM EST
Moon 2:41 PM EST (11/6) 2:44 AM EST (11/6)
Length of Visible Light 11h 17m
Length of Day
10h 21m
Waxing Gibbous, 85% of the Moon is Illuminated
Nov 6
Waxing Gibbous
Nov 10
Full
Nov 18
Last Quarter
Nov 25
New
Dec 2
First Quarter

Hourly Weather History & Observations

Time (EST) Temp. Windchill Dew Point Humidity Pressure Visibility Wind Dir Wind Speed Gust Speed Precip Events Conditions
12:54 AM 41.0 °F 39.0 °F 36.0 °F 82% 30.50 in 10.0 mi NW 3.5 mph - N/A   Clear
1:54 AM 39.9 °F - 37.0 °F 89% 30.50 in 10.0 mi Calm Calm - N/A   Clear
1:54 AM 39.0 °F - 37.0 °F 93% 30.51 in 8.0 mi Calm Calm - N/A   Clear
2:54 AM 39.0 °F - 37.0 °F 93% 30.50 in 7.0 mi Calm Calm - N/A   Clear
3:54 AM 39.0 °F - 37.0 °F 93% 30.50 in 6.0 mi Calm Calm - N/A   Clear
4:02 AM 41.0 °F - 39.2 °F 93% 30.50 in 1.8 mi Calm Calm - N/A   Partly Cloudy
4:12 AM 41.0 °F 39.0 °F 39.2 °F 93% 30.50 in 3.0 mi Variable 3.5 mph - N/A   Partly Cloudy
4:54 AM 42.1 °F 39.2 °F 39.9 °F 92% 30.52 in 7.0 mi NNW 4.6 mph - N/A   Partly Cloudy
5:54 AM 43.0 °F 39.5 °F 37.0 °F 80% 30.52 in 10.0 mi NNW 5.8 mph - N/A   Overcast
6:54 AM 43.0 °F 39.5 °F 39.0 °F 86% 30.53 in 10.0 mi NNW 5.8 mph - N/A   Overcast
7:54 AM 45.0 °F 41.8 °F 39.9 °F 82% 30.55 in 9.0 mi NNW 5.8 mph - N/A   Overcast
8:54 AM 46.9 °F - 42.1 °F 83% 30.56 in 10.0 mi Calm Calm - N/A   Overcast
9:54 AM 51.1 °F - 44.1 °F 77% 30.56 in 10.0 mi Calm Calm - N/A   Overcast
10:54 AM 53.1 °F - 43.0 °F 69% 30.54 in 10.0 mi Calm Calm - N/A   Overcast
11:54 AM 53.1 °F - 42.1 °F 66% 30.52 in 10.0 mi SE 5.8 mph - N/A   Clear
12:54 PM 54.0 °F - 42.1 °F 64% 30.49 in 10.0 mi SE 6.9 mph - N/A   Clear
1:54 PM 55.0 °F - 42.1 °F 62% 30.46 in 10.0 mi ESE 8.1 mph - N/A   Clear
2:54 PM 55.0 °F - 43.0 °F 64% 30.44 in 10.0 mi ESE 8.1 mph - N/A   Clear
3:54 PM 55.0 °F - 44.1 °F 67% 30.43 in 10.0 mi SE 9.2 mph - N/A   Clear
4:54 PM 54.0 °F - 42.1 °F 64% 30.42 in 10.0 mi South 3.5 mph - N/A   Clear
5:54 PM 52.0 °F - 43.0 °F 71% 30.42 in 10.0 mi South 4.6 mph - N/A   Clear
6:54 PM 50.0 °F - 45.0 °F 83% 30.42 in 10.0 mi Calm Calm - N/A   Clear
7:54 PM 48.9 °F - 46.0 °F 90% 30.42 in 9.0 mi Calm Calm - N/A   Clear
8:54 PM 46.9 °F - 44.1 °F 90% 30.42 in 7.0 mi Calm Calm - N/A   Clear
9:54 PM 46.0 °F - 43.0 °F 89% 30.43 in 8.0 mi Calm Calm - N/A   Clear
10:54 PM 46.0 °F - 42.1 °F 86% 30.42 in 9.0 mi Calm Calm - N/A   Clear